Weather History for KLAM - November, 2013

Change the Weather History Date:

Friday, November 15, 2013

  Actual Average Record
Temperature  
Mean Temperature 44 °F -  
Max Temperature 52 °F 47 °F 71 °F (1999)
Min Temperature 37 °F 26 °F 11 °F (1956)
Degree Days  
Heating Degree Days 20    
Moisture  
Dew Point 30 °F    
Average Humidity 63    
Maximum Humidity 100    
Minimum Humidity 31    
Precipitation  
Precipitation 0.08 in - - ()
Sea Level Pressure  
Sea Level Pressure 29.89 in    
Wind  
Wind Speed 6 mph (South)    
Max Wind Speed 21 mph    
Max Gust Speed 30 mph    
Visibility 10 miles    
Events Rain    
Averages and records for this station are not official NWS values.
T = Trace of Precipitation, MM = Missing Value Source: NWS Daily Summary

Daily Weather History Graph

Daily Weather History Graph

Search for Another Location

Airport or City:

Trip Planner

Search our weather history database for the weather conditions in past years. The results will help you decide how hot, cold, wet, or windy it might be!

Date:

Astronomy

Nov. 15, 2013 Rise Set
Actual Time 6:41 AM MST 4:57 PM MST
Civil Twilight 6:14 AM MST 5:24 PM MST
Nautical Twilight 5:43 AM MST 5:55 PM MST
Astronomical Twilight 5:13 AM MST 6:26 PM MST
Moon 3:53 PM MST (11/15) 4:44 AM MST (11/15)
Length of Visible Light 11h 10m
Length of Day
10h 15m
Waxing Gibbous, 97% of the Moon is Illuminated
Nov 15
Waxing Gibbous
Nov 17
Full
Nov 25
Last Quarter
Dec 2
New
Dec 9
First Quarter

Hourly Weather History & Observations

Time (MST) Temp. Windchill Dew Point Humidity Pressure Visibility Wind Dir Wind Speed Gust Speed Precip Events Conditions
12:15 AM 43.2 °F 41.5 °F 14.7 °F 32% 30.02 in 10.0 mi SE 3.5 mph - N/A   Clear
12:35 AM 43.3 °F - 14.5 °F 31% 30.01 in 10.0 mi Calm Calm - N/A   Clear
12:55 AM 42.8 °F 41.1 °F 15.3 °F 33% 30.00 in 10.0 mi West 3.5 mph - N/A   Clear
1:15 AM 41.4 °F - 16.9 °F 37% 29.99 in 10.0 mi Calm Calm - N/A   Clear
1:35 AM 40.8 °F - 17.2 °F 39% 29.99 in 10.0 mi Calm Calm - N/A   Clear
1:55 AM 40.5 °F - 17.4 °F 39% 29.99 in 10.0 mi Calm Calm - N/A   Clear
2:15 AM 42.4 °F 37.0 °F 18.0 °F 37% 29.99 in 10.0 mi SSW 9.2 mph - N/A   Clear
2:35 AM 43.0 °F 37.7 °F 18.7 °F 38% 29.99 in 10.0 mi South 9.2 mph - N/A   Clear
2:55 AM 42.8 °F 38.6 °F 21.2 °F 42% 29.99 in 10.0 mi South 6.9 mph - N/A   Clear
3:15 AM 42.8 °F 38.0 °F 23.7 °F 47% 29.99 in 10.0 mi South 8.1 mph - N/A   Clear
3:35 AM 42.6 °F 40.9 °F 25.7 °F 51% 29.98 in 10.0 mi SSE 3.5 mph - N/A   Clear
3:55 AM 37.4 °F 34.9 °F 22.3 °F 54% 29.97 in 10.0 mi NW 3.5 mph - N/A   Clear
4:15 AM 37.8 °F - 23.2 °F 56% 29.97 in 10.0 mi Calm Calm - N/A   Clear
4:35 AM 39.2 °F - 23.0 °F 52% 29.97 in 10.0 mi Calm Calm - N/A   Clear
4:55 AM 38.7 °F - 22.3 °F 52% 29.97 in 10.0 mi Calm Calm - N/A   Clear
5:15 AM 40.5 °F - 22.1 °F 48% 29.96 in 10.0 mi Calm Calm - N/A   Scattered Clouds
5:35 AM 39.7 °F - 22.5 °F 50% 29.96 in 10.0 mi Calm Calm - N/A   Scattered Clouds
5:55 AM 39.2 °F - 24.3 °F 55% 29.95 in 10.0 mi Calm Calm - N/A   Scattered Clouds
6:15 AM 38.5 °F - 25.7 °F 60% 29.95 in 10.0 mi Calm Calm - N/A   Clear
6:35 AM 38.1 °F - 24.8 °F 59% 29.95 in 10.0 mi Calm Calm - N/A   Clear
6:55 AM 37.8 °F - 25.7 °F 62% 29.96 in 10.0 mi Calm Calm - N/A   Clear
7:15 AM 37.9 °F 33.5 °F 26.6 °F 64% 29.95 in 10.0 mi SSE 5.8 mph - N/A   Clear
7:35 AM 37.9 °F 32.1 °F 27.1 °F 65% 29.96 in 10.0 mi South 8.1 mph - N/A   Clear
7:55 AM 39.2 °F 33.6 °F 26.8 °F 61% 29.96 in 10.0 mi South 8.1 mph - N/A   Clear
8:15 AM 40.3 °F 35.5 °F 26.6 °F 58% 29.96 in 10.0 mi SSE 6.9 mph - N/A   Clear
8:35 AM 40.5 °F 35.8 °F 26.6 °F 58% 29.96 in 10.0 mi South 6.9 mph - N/A   Clear
8:55 AM 41.2 °F 36.6 °F 26.4 °F 56% 29.96 in 10.0 mi South 6.9 mph - N/A   Clear
9:15 AM 41.9 °F 36.9 °F 27.0 °F 55% 29.96 in 10.0 mi SSE 8.1 mph - N/A   Clear
9:35 AM 42.1 °F 37.7 °F 26.4 °F 54% 29.96 in 10.0 mi SE 6.9 mph - N/A   Clear
9:55 AM 42.8 °F 38.0 °F 26.4 °F 52% 29.96 in 10.0 mi SE 8.1 mph - N/A   Clear
10:15 AM 43.0 °F 39.5 °F 26.1 °F 51% 29.96 in 10.0 mi SE 5.8 mph - N/A   Clear
10:35 AM 44.2 °F 40.3 °F 25.9 °F 49% 29.95 in 10.0 mi SE 6.9 mph - N/A   Clear
10:55 AM 45.3 °F 41.1 °F 25.9 °F 47% 29.94 in 10.0 mi ESE 8.1 mph - N/A   Clear
11:15 AM 46.6 °F - 25.7 °F 44% 29.93 in 10.0 mi SE 11.5 mph - N/A   Clear
11:35 AM 47.5 °F - 27.0 °F 45% 29.91 in 10.0 mi SSE 10.4 mph 17.3 mph N/A   Clear
11:55 AM 50.2 °F - 26.1 °F 39% 29.90 in 10.0 mi SW 11.5 mph 19.6 mph N/A   Scattered Clouds
12:15 PM 52.0 °F - 25.2 °F 35% 29.89 in 10.0 mi SW 15.0 mph 26.5 mph N/A   Scattered Clouds
12:35 PM 49.3 °F - 26.8 °F 42% 29.88 in 10.0 mi South 12.7 mph 19.6 mph N/A   Mostly Cloudy
12:55 PM 50.5 °F - 27.9 °F 42% 29.86 in 10.0 mi SE 5.8 mph - N/A   Scattered Clouds
1:15 PM 49.5 °F - 31.6 °F 50% 29.86 in 10.0 mi West 10.4 mph - N/A Rain Light Rain
1:35 PM 46.4 °F 40.4 °F 36.5 °F 68% 29.86 in 10.0 mi SW 13.8 mph 18.4 mph N/A   Overcast
1:55 PM 46.8 °F - 35.4 °F 65% 29.85 in 10.0 mi SSW 6.9 mph 17.3 mph N/A   Scattered Clouds
2:15 PM 48.4 °F - 33.4 °F 56% 29.84 in 10.0 mi South 11.5 mph 16.1 mph N/A   Mostly Cloudy
2:35 PM 48.2 °F - 32.9 °F 55% 29.83 in 10.0 mi SSW 12.7 mph 18.4 mph N/A   Scattered Clouds
2:55 PM 48.2 °F - 32.7 °F 55% 29.82 in 10.0 mi South 13.8 mph - N/A   Mostly Cloudy
3:15 PM 48.2 °F - 33.3 °F 56% 29.82 in 10.0 mi SSW 15.0 mph 25.3 mph N/A   Overcast
3:35 PM 45.3 °F 41.1 °F 35.1 °F 67% 29.81 in 10.0 mi SW 8.1 mph - N/A   Scattered Clouds
3:55 PM 45.5 °F 41.8 °F 34.9 °F 66% 29.79 in 10.0 mi SSW 6.9 mph - N/A   Scattered Clouds
4:15 PM 45.9 °F 41.7 °F 34.2 °F 64% 29.79 in 10.0 mi SSW 8.1 mph - N/A   Overcast
4:35 PM 46.4 °F 43.5 °F 33.4 °F 61% 29.80 in 10.0 mi SW 5.8 mph - N/A   Overcast
4:55 PM 44.4 °F 36.1 °F 36.5 °F 74% 29.82 in 7.0 mi SSW 20.7 mph 29.9 mph N/A Rain Heavy Rain
5:15 PM 41.2 °F 36.6 °F 37.9 °F 88% 29.80 in 10.0 mi SSW 6.9 mph - 0.01 in Rain Light Rain
5:35 PM 40.6 °F 34.8 °F 39.0 °F 94% 29.80 in 10.0 mi South 9.2 mph - 0.01 in   Scattered Clouds
5:55 PM 41.0 °F 35.2 °F 38.3 °F 90% 29.80 in 10.0 mi SSW 9.2 mph - 0.01 in Rain Light Rain
6:15 PM 41.5 °F 36.4 °F 37.6 °F 86% 29.80 in 10.0 mi SSW 8.1 mph - N/A   Drizzle
6:35 PM 42.1 °F 34.9 °F 36.9 °F 82% 29.79 in 10.0 mi South 13.8 mph 17.3 mph N/A Rain Light Rain
6:55 PM 42.4 °F 35.7 °F 36.7 °F 80% 29.79 in 10.0 mi SSW 12.7 mph - N/A   Drizzle
7:15 PM 42.8 °F 36.6 °F 37.2 °F 81% 29.78 in 10.0 mi South 11.5 mph 19.6 mph N/A Rain Rain
7:35 PM 42.3 °F 36.3 °F 38.7 °F 87% 29.79 in 10.0 mi South 10.4 mph - 0.01 in Rain Rain
7:55 PM 43.2 °F 35.6 °F 39.7 °F 88% 29.79 in 10.0 mi South 16.1 mph 19.6 mph 0.01 in   Scattered Clouds
8:15 PM 42.8 °F 34.5 °F 40.1 °F 90% 29.80 in 10.0 mi SSW 18.4 mph 24.2 mph N/A Rain Light Rain
8:35 PM 42.3 °F 34.4 °F 41.2 °F 96% 29.79 in 10.0 mi South 16.1 mph 19.6 mph 0.02 in Rain Light Rain
8:55 PM 42.4 °F 35.0 °F 41.5 °F 97% 29.80 in 10.0 mi South 15.0 mph 19.6 mph 0.03 in Rain Light Rain
9:15 PM 41.9 °F 35.9 °F 38.3 °F 87% 29.79 in 10.0 mi South 10.4 mph 23.0 mph 0.01 in Rain Light Rain
9:35 PM 41.5 °F 35.0 °F 41.5 °F 100% 29.79 in 10.0 mi South 11.5 mph 20.7 mph 0.01 in   Light Drizzle
9:55 PM 41.2 °F 33.7 °F 41.2 °F 100% 29.78 in 10.0 mi South 13.8 mph 20.7 mph 0.01 in Rain Light Rain
10:15 PM 41.0 °F 34.3 °F 41.0 °F 100% 29.77 in 10.0 mi South 11.5 mph 16.1 mph 0.01 in Rain Light Rain
10:35 PM 40.3 °F 32.2 °F 40.3 °F 100% 29.78 in 10.0 mi South 15.0 mph 18.4 mph 0.01 in Rain Light Rain
10:55 PM 40.5 °F 33.6 °F 40.5 °F 100% 29.78 in 10.0 mi South 11.5 mph - 0.01 in   Light Drizzle
11:15 PM 40.6 °F 35.4 °F 40.6 °F 100% 29.78 in 10.0 mi South 8.1 mph 16.1 mph N/A   Drizzle
11:35 PM 41.0 °F 35.2 °F 40.8 °F 99% 29.77 in 10.0 mi South 9.2 mph - 0.01 in Rain Rain
11:55 PM 41.0 °F 35.2 °F 40.5 °F 98% 29.79 in 10.0 mi South 9.2 mph - 0.01 in   Drizzle